[Iaude] MPEC K10: 2024 JZ17 [a=2.26,e=0.56,i=11.3,H=26.0]
    mpec at cfa.harvard.edu 
    mpec at cfa.harvard.edu
       
    Fri May 17 08:00:38 EDT 2024
    
    
  
M.P.E.C. 2024-K10                                  Issued 2024 May 17, 11:59 UT
     The Minor Planet Electronic Circulars contain information on unusual
         minor planets, routine data on comets and natural satellites,
         and occasional editorial announcements.  They are published
    on behalf of Division F of the International Astronomical Union by the
          Minor Planet Center, Smithsonian Astrophysical Observatory,
                          Cambridge, MA 02138, U.S.A.
			  
             Prepared using the Tamkin Foundation Computer Network
                              MPC at CFA.HARVARD.EDU
            URL https://www.minorplanetcenter.net/    ISSN 1523-6714
                                   2024 JZ17                                    
Observations:
     K24J17Z*1C2024 05 15.21133912 41 21.260+17 58 19.49         21.00GVEK010G96
     K24J17Z 1C2024 05 15.21701312 41 19.018+17 57 18.14         20.84GVEK010G96
     K24J17Z 1C2024 05 15.22268712 41 16.955+17 56 17.16         21.32GVEK010G96
     K24J17Z KC2024 05 15.29880412 40 48.529+17 42 22.93         21.48GVEK010I52
     K24J17Z KC2024 05 15.30192212 40 47.392+17 41 48.55         21.26GVEK010I52
     K24J17Z KC2024 05 15.30504312 40 46.272+17 41 13.42               VEK010I52
     K24J17Z KC2024 05 15.30816012 40 45.149+17 40 38.35         20.82GVEK010I52
     K24J17Z KC2024 05 16.00655112 36 56.155+15 19 10.38         20.4 GVEK010J95
     K24J17Z KC2024 05 16.02647612 36 48.240+15 14 41.39         20.3 GVEK010J95
     K24J17Z KB2024 05 16.89970 12 31 01.03 +11 33 28.6          20.4 GXEK010M45
     K24J17Z KB2024 05 16.90883 12 30 56.43 +11 30 48.7          20.3 GXEK010M45
     K24J17Z KB2024 05 16.94041812 30 55.627+11 26 28.75         21.8 VZEK010Y05
     K24J17Z KB2024 05 16.95119112 30 49.634+11 23 21.66         20.1 VZEK010Y05
     K24J17Z KC2024 05 17.27741812 28 02.737+09 38 34.01         20.15GVEK010I52
     K24J17Z KC2024 05 17.27858612 28 02.140+09 38 10.32         19.88GVEK010I52
     K24J17Z KC2024 05 17.27975912 28 01.384+09 37 47.50         20.10GVEK010I52
     K24J17Z KC2024 05 17.28094512 28 00.692+09 37 24.06         20.55GVEK010I52
Observer details:
G96 Mt. Lemmon Survey.  Observer D. Rankin.  Measurers T. Beuden, V. F.
    Carvajal, D. Fay, J. B. Fazekas, D. C. Fuls, A. R. Gibbs, A. D. Grauer, H.
    Groeller, J. K. Hogan, R. A. Kowalski, S. M. Larson, G. J. Leonard, D.
    Rankin, R. L. Seaman, F. C. Shelly, K. W. Wierzchos.  1.5-m reflector +
    10K CCD.
I52 Steward Observatory, Mt. Lemmon Station.  Observers K. W. Wierzchos, J. K.
    Hogan.  Measurers T. Beuden, V. F. Carvajal, D. Fay, J. B. Fazekas, D. C.
    Fuls, A. R. Gibbs, A. D. Grauer, H. Groeller, J. K. Hogan, R. A. Kowalski,
    S. M. Larson, G. J. Leonard, D. Rankin, R. L. Seaman, F. C. Shelly, K. W.
    Wierzchos.  1.0-m prime focus + CCD.
J95 Great Shefford.  Observer P. Birtwhistle.  0.41-m f/6.3 Schmidt-Cassegrain
    + CCD.
M45 Starhopper Observatory, Sfantu Gheorghe.  Observer F. Ursache.  0.41-m
    f/7.5 reflector + CMO.
Y05 SONEAR Wykrota-CEAMIG, Serra da Piedade.  Observers C. Jacques, A.
    Caetano, E. Pimentel.  Measurer C. Jacques.  0.45-m f/2.9 reflector + CMO.
Orbital elements:
2024 JZ17                                                Earth MOID = 0.0121 AU
Epoch 2024 Mar. 31.0 TT = JDT 2460400.5                 Veres                   
M 341.34930              (2000.0)            P               Q                  
n   0.28967861     Peri.  198.67479     -0.25386076     +0.95317140             
a   2.2621693      Node    56.92768     -0.86056949     -0.14499769             
e   0.5550535      Incl.   11.31221     -0.44155959     -0.26540525             
P   3.40           H   26.08          G   0.15           U   8                  
Residuals in seconds of arc
240515 G96  0.6+  0.3+    240515 I52  0.0   0.4-    240516 Y05  0.4-  0.1+
240515 G96  0.9-  0.2-    240516 J95  0.2-  0.1+    240517 I52  0.0   0.4+
240515 G96  0.2+  0.1-    240516 J95  0.4+  0.1+    240517 I52  1.0+  0.3-
240515 I52  0.5-  0.2-    240516 M45  0.1+  0.6-    240517 I52  0.2-  0.0
240515 I52  0.4-  0.2+    240516 M45  0.6+  0.7-    240517 I52  0.4-  0.1-
240515 I52  0.2-  0.2-    240516 Y05  0.4+  0.8-
Ephemeris:
2024 JZ17                a,e,i = 2.26, 0.56, 11                  q = 1.0065
Date    TT    R. A. (2000) Decl.     Delta      r    Elong.  Phase     V
2024 04 17    13 24 07.3 +31 37 00   0.2090  1.1670   137.7    35.3    24.5
...
2024 05 02    13 11 19.5 +31 07 44   0.1183  1.0864   129.1    46.0    23.4
...
2024 05 10    12 58 34.2 +26 56 03   0.07169 1.0530   125.5    51.3    22.4
...
2024 05 16    12 37 05.9 +15 23 15   0.03812 1.0333   124.9    53.4    21.0
2024 05 17    12 30 23.8 +11 06 57   0.03291 1.0306   125.1    53.4    20.7
2024 05 18    12 21 39.3 +05 15 58   0.02800 1.0279   125.3    53.4    20.3
...
2024 05 24    07 06 59.4 -69 53 44   0.02143 1.0152    96.2    82.6    20.7
...
2024 06 01    02 06 54.8 -52 58 58   0.06254 1.0069    81.7    94.8    23.5
...
2024 06 16    01 38 45.7 -44 44 11   0.1458  1.0192    87.2    84.6    24.9
M. P. C. Staff               (C) Copyright 2024 MPC           M.P.E.C. 2024-K10
    
    
More information about the Iaude
mailing list